Location: Vassar Physics Lab
(41.6843°N, 73.8954°W)
Time: 07:43:16
(UTC-04:00)

Daily predictions for brighter satellites

Satellite Brightness Start Highest point End
(mag) Time Altitude Azimuth Time Altitude Azimuth Time Altitude Azimuth
Cosmos 1844 4.0 20:01:43 10° NNW 20:07:20 56° ENE 20:12:57 10° SE
Cosmos 2251 Rocket 3.6 20:04:44 10° NNW 20:10:07 68° ENE 20:15:27 10° SSE
Envisat 3.0 20:06:21 10° SSE 20:11:24 74° ENE 20:16:29 10° N
Cosmos 2219 Rocket 2.4 20:06:29 10° S 20:11:55 50° ESE 20:17:22 10° NE
USA 186 2.1 20:10:08 10° SE 20:12:04 25° ENE 20:14:03 10° NNE
Cosmos 2237 Rocket 3.1 20:09:36 10° SSE 20:14:04 25° ESE 20:18:34 10° NE
Cosmos 1892 3.1 20:10:34 10° N 20:14:19 44° ENE 20:18:01 10° SSE
BREEZE-M DEB (TANK) 3.9 20:08:39 10° WNW 20:15:08 56° SW 20:18:31 10° SE
YAOGAN 6 3.0 20:15:46 10° SE 20:19:11 43° ENE 20:22:39 10° N
Nadezhda 3 Rocket 4.1 20:15:03 10° N 20:21:19 65° E 20:27:37 10° SSE
Cosmos 2278 Rocket 3.1 20:17:52 10° N 20:22:59 33° ENE 20:27:58 10° ESE
Meteor 2-15 Rocket 4.5 20:19:19 10° N 20:25:28 69° E 20:31:33 10° SSE
Cosmos 1633 Rocket 3.1 20:22:15 10° N 20:26:34 58° E 20:30:51 10° SSE
Genesis I 4.0 20:22:41 10° NNW 20:26:34 40° NE 20:30:04 12° ESE
NOSS 2-1 (C) 4.2 20:33:48 10° SW 20:37:19 50° NW 20:41:15 10° NNE
Cosmos 1515 Rocket 4.1 20:33:51 10° SSE 20:37:57 37° E 20:42:04 10° NNE
NOSS 2-1 (D) 4.3 20:34:47 10° SW 20:38:18 48° NW 20:42:14 10° NNE
BREEZE-M DEB (TANK) 2.7 20:34:01 10° WNW 20:38:53 59° NNE 20:40:37 17° E
Cosmos 1340 3.4 20:35:33 10° SSW 20:39:16 56° WNW 20:43:01 10° N
Thor Agena Rocket 3.6 20:36:27 10° NNE 20:41:43 89° WNW 20:47:00 10° SSW
Cosmos 2228 Rocket 3.5 20:38:33 10° SSE 20:42:40 41° E 20:46:49 10° NNE
SL-24 R/B - RUBIN 2 4.3 20:38:54 10° NW 20:43:06 49° WSW 20:47:19 10° SSE
Lacrosse 5 4.3 20:42:07 10° NNW 20:44:47 14° N 20:47:26 10° NE
ATLAS 2AS CENTAUR R/B 3.0 20:37:50 10° NNW 20:45:48 77° NE 20:52:15 14° SE
Cosmos 1825 2.9 20:49:30 10° N 20:53:02 35° ENE 20:54:53 22° SE
NOSS 3 (A) 4.4 20:51:28 10° SSW 20:54:10 59° ESE 20:57:09 10° NE
Spot 2 Rocket 3.5 20:49:12 10° SSE 20:54:16 72° ENE 20:59:21 10° N
Cosmos 1328 Rocket 3.5 20:52:18 10° S 20:56:43 90° N 21:01:11 10° N
ATLAS CENTAUR R/B 1.2 20:55:36 10° SW 20:59:15 76° NW 21:03:05 10° NNE
SL-8 R/B 3.6 20:54:57 10° SW 20:59:42 66° SSE 21:04:28 10° ENE
SL-16 R/B 3.1 21:01:33 19° SE 21:04:11 26° ESE 21:08:48 10° NE
Resurs 01 Rocket 2.1 21:02:44 10° S 21:07:08 62° W 21:11:33 10° NNW
ARGOS 3.7 21:06:46 23° SE 21:09:39 42° ENE 21:14:39 10° N
Cosmos 1470 Rocket 3.5 21:05:17 10° N 21:09:42 90° E 21:13:18 15° S
Cosmos 1727 Rocket 4.4 21:04:23 10° N 21:10:13 42° ENE 21:13:28 24° SE
Meteor 2-3 Rocket 4.1 21:08:02 10° NNW 21:13:35 64° W 21:19:09 10° S
BREEZE-M DEB (TANK) 4.4 21:07:03 10° W 21:13:58 32° NNW 21:16:42 10° NE
NOSS 3-4 (A) 4.4 21:09:24 10° NNW 21:16:06 46° NE 21:20:26 23° ESE
NOSS 3-4 (C) 4.4 21:09:30 10° NNW 21:16:11 45° NE 21:20:31 23° ESE
CZ-4B DEB 4.4 21:15:51 35° SSE 21:17:12 73° ENE 21:20:42 10° N
Cosmos 1939 Rocket 4.3 21:14:11 10° SSW 21:17:45 35° W 21:21:23 10° NNW
SL-08 RB Rocket 4.4 21:18:26 30° ESE 21:19:42 35° ENE 21:23:47 10° N
Cosmos 1869 3.2 21:19:48 24° S 21:22:07 67° E 21:26:07 10° NNE
NOSS 0 Rocket 4.1 21:17:30 10° SSW 21:23:40 74° WNW 21:29:53 10° NNE
Meteor 2-10 Rocket 3.8 21:20:50 17° SSE 21:25:06 57° E 21:30:48 10° NNE
Cosmos 2218 Rocket 4.0 21:20:03 10° S 21:26:23 81° E 21:32:49 10° N
USA 267 3.8 21:23:03 10° ENE 21:28:46 32° SE 21:34:26 10° S
SL-08 R/B 4.5 21:23:57 12° S 21:29:44 69° E 21:36:08 10° NNE
Cosmos 1980 4.0 21:24:40 10° SSW 21:30:20 71° WNW 21:36:02 10° NNE
USA 81 4.3 21:25:34 10° N 21:30:42 48° E 21:32:21 36° SE
ERS-1 Rocket 3.4 21:30:09 35° ESE 21:31:38 45° ENE 21:36:25 10° N
Cosmos 407 Rocket 3.7 21:27:44 10° N 21:32:45 52° ENE 21:34:17 38° ESE
Cosmos 2297 4.1 21:30:01 10° NNW 21:35:31 49° ENE 21:37:25 35° ESE
Cosmos 1408 3.3 21:32:54 10° NNW 21:36:28 51° W 21:38:11 27° SSW
Cosmos 2366 rocket 3.9 21:31:41 10° S 21:37:54 89° E 21:44:14 10° N
H-2A R/B 2.1 21:36:33 39° SE 21:38:07 57° ENE 21:43:00 10° N
Cosmos 1933 Rocket 4.2 21:34:00 10° NNW 21:38:16 52° W 21:41:04 20° SSW
Cosmos 2333 Rocket 3.7 21:36:10 10° SW 21:41:23 37° WNW 21:46:37 10° N
Cosmos 2369 Rocket 4.2 21:38:43 10° NNE 21:41:38 14° NE 21:43:31 12° ENE
Cosmos 1151 Rocket 4.2 21:37:58 10° SSW 21:42:00 42° WNW 21:46:05 10° N
Cosmos 1371 Rocket 4.0 21:36:56 10° SSW 21:42:15 84° WNW 21:47:39 10° NNE
Cosmos 1441 Rocket 3.9 21:45:32 40° NE 21:45:32 40° NE 21:48:16 10° NNE
Helios 1B rocket 4.1 21:47:01 10° NE 21:48:47 21° NE 21:48:47 21° NE
Cosmos 1707 Rocket 4.0 21:52:59 43° ENE 21:52:59 43° ENE 21:56:29 10° NNE
Cosmos 676 Rocket 4.3 21:47:45 10° N 21:52:51 49° ENE 21:53:36 45° E
MetOp-A 4.1 21:51:20 37° S 21:53:34 80° WSW 21:58:56 10° NNW
Cosmos 1339 Rocket 4.5 21:48:25 10° N 21:54:31 79° W 21:57:44 30° S
CZ-4C R/B 4.1 21:59:36 15° ENE 21:59:36 15° ENE 22:00:46 10° NE
Cosmos 2219 Rocket 4.4 21:51:29 10° WSW 21:56:08 26° NW 22:00:48 10° N
Cosmos 2237 Rocket 3.2 21:52:26 10° SW 21:57:48 46° WNW 22:03:14 10° NNE
Cosmos 1869 Rocket 3.3 21:56:22 10° N 22:00:45 81° E 22:00:54 80° ESE
Cosmos 2056 Rocket 3.8 21:58:22 10° SSW 22:03:46 70° WNW 22:09:10 10° NNE
Cosmos 1452 Rocket 4.0 22:05:38 42° ENE 22:05:38 42° ENE 22:09:43 10° NNE
Cosmos 2278 Rocket 3.4 22:01:54 10° NW 22:07:04 36° WSW 22:09:50 23° SSW
Helios 1A 3.0 22:08:42 70° NNE 22:08:42 70° NNE 22:12:34 10° N
Terra 3.0 22:09:24 30° NE 22:09:24 30° NE 22:13:03 10° N
Cosmos 1862 3.4 22:06:00 10° N 22:09:45 73° NW 22:09:45 73° NW
ATLAS 5 CENTAUR R/B 4.1 22:05:55 10° NNW 22:10:19 22° NE 22:12:36 18° ENE
Cosmos 2098 Rocket 4.2 22:07:14 16° SW 22:10:32 39° W 22:14:11 10° N
Cosmos 405 Rocket 3.3 22:15:05 55° NNW 22:15:05 55° NNW 22:18:18 10° N
Cosmos 405 4.4 22:14:39 10° NNW 22:17:29 36° WNW 22:17:29 36° WNW
Cosmos 1190 Rocket 4.5 22:18:55 10° NNW 22:24:04 53° WSW 22:24:56 47° SW
Cosmos 1140 Rocket 3.3 22:22:01 10° NNW 22:27:07 82° NE 22:27:07 82° NE
ATLAS 2A CENTAUR R/B 4.4 22:15:12 10° SW 22:27:46 30° S 22:27:46 30° S
SPOT 5 2.8 22:28:34 73° NNW 22:28:34 73° NNW 22:32:38 10° NNW
Lacrosse 5 3.5 22:25:13 10° NNW 22:29:24 25° NNE 22:30:32 23° NE
Cosmos 1934 Rocket 4.0 22:33:03 58° E 22:33:03 58° E 22:38:41 10° NNE
Cosmos 1954 Rocket 4.0 22:31:47 10° NNW 22:36:48 78° WNW 22:36:48 78° WNW
GEOS 3 Rocket 3.9 22:35:05 10° NNE 22:40:24 66° NW 22:43:44 23° SW
CZ-2C R/B 4.0 22:49:11 35° NNE 22:49:11 35° NNE 22:52:24 10° N
SL-16 R/B 3.2 22:43:10 13° SW 22:48:01 45° WNW 22:53:27 10° NNE
Cosmos 2344 3.5 22:44:32 10° SW 22:52:10 85° NW 23:00:34 10° NE
SL-19 R/B 4.4 22:53:15 66° WSW 22:53:15 66° WSW 22:58:48 10° NNW
Cosmos 1943 Rocket 3.3 22:50:12 10° N 22:54:37 32° NE 22:54:37 32° NE
Cosmos 1821 Rocket 4.3 22:57:38 54° SW 22:58:47 63° W 23:05:03 10° N
NOSS 3-4 (A) 4.4 23:00:23 10° NW 23:07:05 44° WSW 23:07:53 43° SW
NOSS 3-4 (C) 4.4 23:00:29 10° NW 23:07:11 44° WSW 23:07:59 43° SW
USA 267 3.3 23:05:34 10° NE 23:12:05 74° NW 23:18:35 10° WSW
Cosmos 1603 4.3 23:16:16 52° N 23:16:16 52° N 23:20:30 10° NNE
Cosmos 2123 Rocket 4.1 23:09:49 10° N 23:15:50 72° WNW 23:15:50 72° WNW
H-2A R/B 4.2 23:17:11 16° WSW 23:17:52 17° W 23:21:01 10° NW
Cosmos 1943 4.5 23:21:18 31° NE 23:21:18 31° NE 23:24:16 10° NNE
Cosmos 2369 Rocket 2.8 23:20:55 10° NNW 23:25:18 54° N 23:25:18 54° N
CZ-2C R/B 3.6 23:36:03 10° NNE 23:39:33 42° N 23:39:33 42° N
CZ-4C R/B 3.1 23:44:41 45° NNW 23:44:41 45° NNW 23:50:00 10° NNE
USA 234 3.4 23:45:38 69° NNE 23:45:38 69° NNE 23:51:51 10° NW
Terra 3.8 23:48:17 23° WNW 23:48:17 23° WNW 23:50:44 10° NW
